Location: Tabor
(49.4170°N, 14.6670°E)
Time: 16:47:53
(UTC+02:00)

ISS - Visible Passes

Search period start: 20 July 2019 00:00
Search period end: 30 July 2019 00:00
Orbit: 409 x 418 km, 51.6° (Epoch: 20 July)

Date Brightness Start Highest point End Pass type
(mag) Time Alt. Az. Time Alt. Az. Time Alt. Az.
20 Jul -3.6 01:29:11 10° WNW 01:32:32 72° NNE 01:35:50 10° E visible
20 Jul -3.2 03:06:01 10° W 03:09:04 34° SSW 03:12:06 10° SE visible
20 Jul -3.5 23:02:56 10° W 23:06:15 68° NNW 23:09:35 10° ENE visible
21 Jul -3.3 00:39:51 10° WNW 00:43:09 61° N 00:45:17 20° E visible
21 Jul -2.1 02:16:36 10° WNW 02:18:01 22° W 02:18:01 22° W visible
21 Jul -3.7 22:13:33 10° WSW 22:16:55 83° NNW 22:20:15 10° ENE visible
21 Jul -3.1 23:50:28 10° WNW 23:53:47 56° N 23:56:37 13° E visible
22 Jul -2.8 01:27:15 10° WNW 01:29:24 36° W 01:29:24 36° W visible
22 Jul -3.1 23:01:04 10° W 23:04:23 56° N 23:07:40 10° ENE visible
23 Jul -3.8 00:37:54 10° WNW 00:41:10 83° NNW 00:41:10 83° NNW visible
23 Jul -3.2 22:11:39 10° W 22:14:58 61° N 22:18:17 10° ENE visible
23 Jul -3.5 23:48:32 10° WNW 23:51:52 68° N 23:53:06 35° E visible
24 Jul -1.3 01:25:20 10° W 01:25:54 14° W 01:25:54 14° W visible
24 Jul -3.3 22:59:09 10° WNW 23:02:28 59° N 23:05:07 15° E visible
25 Jul -2.5 00:35:54 10° WNW 00:37:56 32° W 00:37:56 32° W visible
25 Jul -3.1 22:09:44 10° WNW 22:13:02 56° N 22:16:20 10° E visible
25 Jul -4.0 23:46:31 10° WNW 23:49:51 79° SSW 23:50:00 76° SSE visible
26 Jul -3.8 22:57:07 10° WNW 23:00:28 79° NNE 23:02:07 27° E visible
27 Jul -1.5 00:34:01 10° W 00:34:56 16° W 00:34:56 16° W visible
27 Jul -3.4 22:07:43 10° WNW 22:11:03 65° N 22:14:16 11° E visible
27 Jul -2.9 23:44:29 10° WNW 23:47:04 38° WSW 23:47:04 38° WSW visible
28 Jul -3.8 22:55:01 10° WNW 22:58:20 62° SSW 22:59:14 42° SE visible
29 Jul -3.8 22:05:35 10° WNW 22:08:57 86° SSW 22:11:26 17° ESE visible
29 Jul -1.7 23:42:41 10° W 23:44:15 18° WSW 23:44:15 18° WSW visible
